Home   Weather   Turaif   Past weeks

Flag for Saudi Arabia Past Weather in Turaif, Saudi Arabia — Yesterday and Last 2 Weeks

Now
50 °F

Clear.


Feels Like: 47 °F
Forecast: 35 / 56 °F
Wind: 7 mph from Northwest

Location: Turaif

Current Time: Jan 19, 2017 at 8:06:42 pm

Latest Report: Jan 19, 2017 at 7:00 pm


Visibility: 10 mi

Pressure: 30.15 "Hg (27.29 "Hg at 827m altitude)

Humidity: 67%

Dew Point: 39 °F

Location of TuraifLocation

Past Weather in Turaif — Graph

°F

Turaif Temperature Yesterday

Maximum temperature yesterday: 59 °F (at 3:00 pm)
Minimum temperature yesterday: 39 °F (at 1:00 am)
Average temperature yesterday: 47 °F

High & Low Weather Summary for the Past Weeks

 TemperatureHumidityPressure
High61 °F (Jan 7, 2:00 pm)100% (Jan 5, 5:00 am)30.33 "Hg (Jan 5, 5:00 am)
Low28 °F (Jan 10, 6:00 am)29% (Jan 7, 4:00 pm)29.89 "Hg (Jan 15, 5:00 am)
Average45 °F71%30.10 "Hg
* Reported Jan 4 6:00 pm — Jan 19 6:00 pm, Turaif, Weather by CustomWeather, © 2017

Note: Actual official high and low records may vary slightly from our data, if they occured in-between our weather recording intervals... More about our weather records

Advertising

Turaif Weather History for the Previous 24 Hours

Scroll right to see more
 ConditionsComfort  
Time TempWeatherWind HumidityBarometerVisibility
6:00 pm
Thu, Jan 19
54 °FSunny.9 mph58%30.12 "Hg10 mi
5:00 pm55 °FSunny.12 mph55%30.12 "Hg10 mi
4:00 pm57 °FSunny.9 mph51%30.09 "Hg10 mi
3:00 pm57 °FSunny.9 mph55%30.09 "Hg10 mi
2:00 pm55 °FSunny.9 mph67%30.12 "Hg10 mi
1:00 pm54 °FSunny.12 mph67%30.15 "Hg10 mi
12:00 pm50 °FSunny.14 mph82%30.15 "Hg10 mi
11:00 am45 °FSunny.14 mph87%30.18 "Hg10 mi
10:00 am41 °FSunny.9 mph93%30.15 "Hg10 mi
9:00 am37 °FSunny.7 mph93%30.15 "Hg10 mi
8:00 am36 °FClear.5 mph93%30.12 "Hg5 mi
7:00 am36 °FClear.5 mph93%30.12 "Hg10 mi
6:00 am36 °FClear.No wind93%30.09 "Hg10 mi
4:00 am36 °FClear.5 mph93%30.09 "Hg10 mi
3:00 am37 °FClear.5 mph93%30.07 "Hg10 mi
2:00 am39 °FClear.7 mph87%30.07 "Hg10 mi
1:00 am41 °FClear.9 mph87%30.09 "Hg10 mi
12:00 am41 °FClear.9 mph87%30.09 "Hg10 mi
11:00 pm
Wed, Jan 18
41 °FClear.9 mph87%30.09 "Hg10 mi
10:00 pm43 °FClear.7 mph81%30.09 "Hg10 mi
9:00 pm46 °FClear.7 mph76%30.07 "Hg10 mi
8:00 pm48 °FClear.12 mph71%30.04 "Hg10 mi
Weather by CustomWeather, © 2017

See weather overviewHow to use our weather pages